Flag for Switzerland Weather past 2 weeks in Chur, Graubünden, Switzerland

Now
73 °F

Mild.


Feels Like: 77 °F
Forecast: 58 / 83 °F
Wind: 7 mph from Northeast

Location: Chur-Ems

Current Time: Sep 16, 2014 at 3:39:10 PM

Latest Report: Sep 16, 2014 at 3:00 PM


Visibility: N/A

Pressure: 29.88 "Hg

Humidity: 51%

Dew point: 54 °F

Location of ChurLocation

Historic Weather in Chur — Graph

°F

Chur temperature yesterday

Maximum temperature yesterday: 73 °F (at 4:00 PM)
Minimum temperature yesterday: 53 °F (at 4:00 AM)
Average temperature yesterday: 62 °F

Past Weeks' High & Low Weather Summary

 TemperatureHumidityPressure
High77 °F (Sep 7, 4:00 PM)96% (Sep 12, 6:00 AM)30.19 "Hg (Sep 12, 6:00 AM)
Low50 °F (Sep 12, 6:00 AM)48% (Sep 7, 5:00 PM)29.81 "Hg (Sep 6, 4:00 PM)
Average60 °F78%30.01 "Hg
* Reported Sep 1 2:00 PM — Sep 16 2:00 PM, Chur, Weather by CustomWeather, © 2014

Note: Actual official high and low records may vary slightly from our data, if they occured in-between our weather recording intervals... More about our weather records

Advertising

Chur weather history for previous 24 hours

 ConditionsComfort  
Time TempWeatherWind HumidityBarometerVisibility
2:00 PM
Sep 16
72 °FPartly sunny.3 mph51%29.90 "Hg16 mi
1:00 PM69 °FMild.1 mph59%29.93 "HgN/A
12:00 PM64 °FMild.1 mph71%29.98 "HgN/A
11:00 AM61 °FOvercast.1 mph75%30.01 "Hg11 mi
10:00 AM60 °FCool.7 mph80%30.02 "HgN/A
9:00 AM59 °FCool.5 mph85%30.03 "HgN/A
8:00 AM56 °FPartly sunny.3 mph87%30.03 "Hg11 mi
7:00 AM56 °FCool.2 mph89%30.02 "HgN/A
6:00 AM58 °FCool.5 mph88%30.01 "HgN/A
5:00 AM58 °FFog.5 mph87%30.01 "Hg8 mi
4:00 AM59 °FCool.5 mph86%30.01 "HgN/A
3:00 AM58 °FCool.7 mph88%30.01 "HgN/A
2:00 AM59 °FFog.5 mph88%30.02 "Hg4 mi
1:00 AM60 °FCool.7 mph85%30.01 "HgN/A
12:00 AM59 °FCool.2 mph89%30.03 "HgN/A
11:00 PM
Sep 15
60 °FRain. Low clouds.3 mph87%30.01 "Hg4 mi
10:00 PM63 °FMild.2 mph79%29.98 "HgN/A
9:00 PM63 °FMild.2 mph76%29.96 "HgN/A
8:00 PM65 °FPassing clouds.7 mph70%29.93 "Hg11 mi
7:00 PM67 °FMild.10 mph67%29.90 "HgN/A
6:00 PM69 °FMild.10 mph64%29.88 "HgN/A
5:00 PM73 °FPartly sunny.12 mph55%29.86 "Hg12 mi
4:00 PM73 °FMild.15 mph54%29.86 "HgN/A
3:00 PM72 °FMild.15 mph54%29.88 "HgN/A
Weather by CustomWeather, © 2014

See weather overviewHow to use our weather pages